Regional Weather Roundup
Issued by NWS Goodland, KS

Home | Current Version | Previous Version | Graphics & Text | Print | Product List | Glossary On
Versions: 1 2 3 4 5 6 7 8 9 10 11 12 13 14 15 16 17 18 19 20 21 22 23 24 25 26 27 28 29 30 31 32 33 34 35 36 37 38 39 40 41 42 43 44 45 46 47 48 49 50
000
ASUS43 KGLD 041608
RWRGLD

GOODLAND FORECAST AREA HOURLY WEATHER ROUNDUP
NATIONAL WEATHER SERVICE GOODLAND KS
1000 AM MDT TUE AUG 04 2015

...OFFICIAL OBSERVATIONS...

CITY           SKY/WX    TMP DP  RH WIND       PRES   REMARKS
GOODLAND KS    SUNNY     80  65  59 S6        29.96F
HILL CITY KS   CLOUDY    81  69  67 SE9       29.93F
IMPERIAL NEB   PTSUNNY   75  65  70 E12       29.97F
MCCOOK NEB     TSTM      70  68  93 NE12      29.97R FOG
AKRON CO       MOSUNNY   78  53  41 NE9       30.04F
BURLINGTON CO  SUNNY     76  58  53 W10       30.01F
LIMON CO       SUNNY     79  46  31 N16       30.09S
$$

...UNOFFICIAL OBSERVATIONS...

CITY           SKY/WX    TMP DP  RH WIND       PRES   REMARKS
COLBY KS       SUNNY     82  70  65 S6        29.95F
NORTON KS      SUNNY     75  64  69 E12       29.93
SHARON SPRINGS   N/A     81  68  63 CALM        N/A
KIT CARSON CO    N/A     77  58  52 MISG        N/A
YUMA CO          N/A     75  59  57 N6          N/A
$$


USA.gov is the U.S. government's official web portal to all federal, state and local government web resources and services.